Regional Weather Roundup
Issued by NWS Cleveland, OH

Home | Current Version | Previous Version | Graphics & Text | Print | Product List | Glossary On
Versions: 1 2 3 4 5 6 7 8 9 10 11 12 13 14 15 16 17 18 19 20 21 22 23 24 25 26 27 28 29 30 31 32 33 34 35 36 37 38 39 40 41 42 43 44 45 46 47 48 49 50
000
ASUS41 KCLE 040910
RWRCLE
OHIO REGIONAL WEATHER ROUNDUP
NATIONAL WEATHER SERVICE CLEVELAND, OH
500 AM EDT TUE AUG 04 2015

NOTE: "FAIR" INDICATES FEW OR NO CLOUDS BELOW 12,000 FEET WITH NO
SIGNIFICANT WEATHER AND/OR OBSTRUCTIONS TO VISIBILITY.

OHZ001>008-015>018-024>027-034-035-043-044-041000-
   NORTHWEST OHIO

CITY           SKY/WX    TMP DP  RH WIND       PRES   REMARKS
DEFIANCE       CLEAR     57  54  89 CALM      29.92R
FINDLAY        CLEAR     58  53  84 SW5       29.91S
TOLEDO EXPRESS CLEAR     60  53  77 SW7       29.91R
TOLEDO EXEC    CLEAR     60  52  74 SW5       29.92R
LIMA           CLEAR     58  53  84 S5        29.94R
$$

OHZ009>014-019>023-028>033-038-089-041000-
   NORTHEAST OHIO

CITY           SKY/WX    TMP DP  RH WIND       PRES   REMARKS
CLE-HOPKINS    PTCLDY    61  54  77 SW8       29.92R
CLE-LAKEFRONT  CLEAR     72  56  57 W14       29.88R
CUY CO. ARPT   NOT AVBL
LORAIN-ELYRIA  CLEAR     58  53  84 W6        29.91S
ASHTABULA      PTCLDY    60  59  96 CALM      29.89R
AKRON-CANTON   CLEAR     62  53  72 W5        29.92R
WOOSTER        CLEAR     55  52  89 CALM      29.94R
MANSFIELD      CLEAR     56  51  84 CALM      29.94R
YOUNGSTOWN     PTCLDY    60  58  92 W6        29.89S
$$

OHZ042-051>053-060>062-070>072-077>081-041000-
  SOUTHWEST OHIO

CITY           SKY/WX    TMP DP  RH WIND       PRES   REMARKS
CINC-COVINGTON PTCLDY    67  65  93 CALM      29.94S
CINC-LUNKEN    FOG       65  65 100 CALM      29.94S VSB 1/4
HAMILTON       PTCLDY    63  62  97 CALM      29.95R FOG
DAYTON         PTCLDY    63  59  87 CALM      29.96R
WRIGHT-PAT AFB PTCLDY    63  61  96 CALM      29.94S
DAYTON GENERAL CLEAR     64  60  87 CALM      29.94R
WILMINGTON     CLEAR     62  61  96 CALM      29.95S FOG
$$

OHZ036-037-039>041-045>050-054>059-063>069-073>076-082>088-041000-
  CENTRAL AND SOUTHEAST OHIO

CITY           SKY/WX    TMP DP  RH WIND       PRES   REMARKS
COLUMBUS       PTCLDY    63  60  90 CALM      29.93S
OSU AIRPORT    CLEAR     64  58  80 CALM      29.94S
BOLTON FIELD   PTCLDY    60  60  98 MISG      29.95S
RICKENBACK AFB PTCLDY    62  61  96 CALM      29.94R
NEWARK         PTCLDY    59  57  93 CALM      29.93S
MARION         CLEAR     56  52  86 SW3       29.94R
LANCASTER      PTCLDY    59  57  93 CALM      29.94R FOG
ZANESVILLE     CLEAR     64  55  72 CALM      29.94R
NEW PHILLY     CLEAR     59  55  87 N3        29.92F
$$



USA.gov is the U.S. government's official web portal to all federal, state and local government web resources and services.